This is the latest recevied weather packets stored in our database for station/object K8RRT. If no packets are shown the sender has not sent any weather packets the latest 10 day(s).
| Time | Temp. | Humidity | Pressure | Rain* | Wind** | Luminosity | Snow |
|---|---|---|---|---|---|---|---|
| 1777868397 | 10° C | 84% | 1011.4 hPa | 0 mm | - | 0 W/m² | - |
| 1777868093 | 10° C | 84% | 1011.6 hPa | 0 mm | - | 0 W/m² | - |
| 1777867789 | 10° C | 83% | 1011.4 hPa | 0 mm | - | 0 W/m² | - |
| 1777867487 | 10° C | 81% | 1011.5 hPa | 0 mm | - | 0 W/m² | - |
| 1777867183 | 10° C | 81% | 1011.7 hPa | 0 mm | - | 0 W/m² | - |
| 1777866881 | 10° C | 81% | 1011.3 hPa | 0 mm | - | 0 W/m² | - |
| 1777866577 | 10° C | 77% | 1011.5 hPa | 0 mm | - | 0 W/m² | - |
| 1777866275 | 10° C | 75% | 1011.5 hPa | 0 mm | - | 0 W/m² | - |
| 1777865972 | 10° C | 75% | 1011.3 hPa | 0 mm | - | 0 W/m² | - |
| 1777865669 | 10° C | 77% | 1011.4 hPa | 0 mm | - | 0 W/m² | - |
| 1777865366 | 10° C | 77% | 1011.4 hPa | 0 mm | - | 0 W/m² | - |
| 1777865063 | 10° C | 76% | 1011.6 hPa | 0 mm | - | 0 W/m² | - |
| 1777864760 | 10° C | 75% | 1011.2 hPa | 0 mm | - | 0 W/m² | - |
| 1777864457 | 10° C | 74% | 1011.8 hPa | 0 mm | - | 0 W/m² | - |
| 1777864154 | 10° C | 73% | 1011.4 hPa | 0 mm | - | 0 W/m² | - |
| 1777863851 | 10° C | 73% | 1011.2 hPa | 0 mm | - | 0 W/m² | - |
| 1777863546 | 10° C | 74% | 1011.3 hPa | 0 mm | - | 0 W/m² | - |
| 1777863243 | 10° C | 74% | 1011.3 hPa | 0 mm | - | 0 W/m² | - |
| 1777862940 | 10° C | 72% | 1011.2 hPa | 0 mm | - | 0 W/m² | - |
| 1777862636 | 10° C | 72% | 1011.5 hPa | 0 mm | - | 0 W/m² | - |
| 1777862334 | 10° C | 72% | 1011.4 hPa | 0 mm | - | 0 W/m² | - |
| 1777862030 | 10° C | 72% | 1011.5 hPa | 0 mm | - | 0 W/m² | - |
| 1777861725 | 10° C | 72% | 1011.3 hPa | 0 mm | - | 0 W/m² | - |
| 1777861423 | 10° C | 71% | 1011.4 hPa | 0 mm | - | 0 W/m² | - |
| 1777861119 | 10° C | 69% | 1011.2 hPa | 0 mm | - | 0 W/m² | - |
* Rain latest hour (hover to see other rain measurements)
** Current wind speed in m/s (hover to see current wind gust speed)